This demonstration page uses our WeatherBlox Daily Observations layout. Learn more.

Left ArrowRight Arrow

Hourly Observations for December 24, 2020

Temp ( °F °C ) Dew Point ( °F °C ) Humidity (%) Winds ( mph kmh ) Pressure ( in mb ) Visibility ( mi km ) Precip ( " mm )
12:53 am 00:53 Cloudy with Light Rain 50 10 42 5.6 74 74 S 13 20 29.69 1005 10 16 0.02 0.51
1:35 am 01:35 Cloudy with Light Rain 50 10 43 6.1 77 77 SW 12 19 29.72 1006 8 13 0.01 0.25
1:53 am 01:53 Cloudy with Light Rain 48 8.9 45 7.2 89 89 WSW 9 15 29.73 1007 5 8 0.05 1.27
2:22 am 02:22 Cloudy with Light Rain 48 8.9 45 7.2 89 89 SSW 10 17 29.72 1006 8 13 0.02 0.51
2:53 am 02:53 Cloudy with Light Rain 48 8.9 45 7.2 89 89 VRB 6 9 29.71 1006 10 16 0.03 0.76
3:53 am 03:53 Cloudy 48 8.9 45 7.2 89 89 S 5 7 29.69 1005 10 16 0.01 0.25
4:00 am 04:00 Cloudy 48 8.9 45 7.2 89 89 VRB 7 11 29.70 1006 10 16 0.01 0.25
4:53 am 04:53 Cloudy with Light Rain 43 6.1 41 5 93 93 WNW 13 20 29.71 1006 5 8 0.01 0.25
5:26 am 05:26 Cloudy with Light Rain 38 3.3 36 2.2 93 93 WNW 15 24 29.75 1008 4 6 0.02 0.51
5:44 am 05:44 Cloudy with Mist and Fog 37 2.8 35 1.7 93 93 WNW 13 20 29.77 1008 5 8 0.02 0.51
5:53 am 05:53 Cloudy with Mist and Fog 37 2.8 34 1.1 89 89 W 10 17 29.75 1007 5 8 0.02 0.51
6:39 am 06:39 Cloudy with Mist and Fog 34 1.1 31 -0.6 89 89 W 15 24 29.79 1009 5 8 0.00 0.00
6:53 am 06:53 Cloudy 34 1.1 30 -1.1 85 85 WNW 14 22 29.77 1008 10 16 0.00 0.00
7:24 am 07:24 Cloudy 33 0.6 26 -3.3 75 75 W 13 20 29.80 1009 10 16 0.00 0.00
7:53 am 07:53 Cloudy 32 0 26 -3.3 79 79 W 8 13 29.79 1009 10 16 0.00 0.00
8:53 am 08:53 Cloudy 32 0 24 -4.4 73 73 W 9 15 29.81 1009 10 16 0.00 0.00
9:53 am 09:53 Cloudy 31 -0.6 21 -6.1 67 67 WNW 12 19 29.82 1010 10 16 0.00 0.00
10:34 am 10:34 Cloudy 30 -1.1 21 -6.1 69 69 W 9 15 29.86 1011 10 16 0.00 0.00
10:53 am 10:53 Cloudy 29 -1.7 20 -6.7 69 69 WNW 16 26 29.81 1010 10 16 0.00 0.00
11:53 am 11:53 Cloudy 27 -2.8 18 -7.8 69 69 WNW 12 19 29.82 1010 10 16 0.00 0.00
12:53 pm 12:53 Cloudy 27 -2.8 18 -7.8 69 69 WNW 13 20 29.79 1009 10 16 0.00 0.00
1:53 pm 13:53 Cloudy 26 -3.3 18 -7.8 71 71 WNW 13 20 29.79 1009 10 16 0.00 0.00
2:53 pm 14:53 Cloudy 25 -3.9 16 -8.9 69 69 WNW 12 19 29.80 1009 10 16 0.00 0.00
3:53 pm 15:53 Cloudy 25 -3.9 16 -8.9 69 69 W 12 19 29.80 1009 10 16 0.00 0.00
4:53 pm 16:53 Cloudy 24 -4.4 15 -9.4 68 68 WNW 14 22 29.80 1009 10 16 0.00 0.00
5:53 pm 17:53 Cloudy 24 -4.4 15 -9.4 68 68 WNW 12 19 29.83 1010 10 16 0.00 0.00
6:53 pm 18:53 Cloudy 23 -5 14 -10 68 68 WNW 16 26 29.84 1011 10 16 0.00 0.00
7:53 pm 19:53 Cloudy with Light Snow 21 -6.1 15 -9.4 78 78 NW 14 22 29.86 1011 3 5 0.00 0.00
8:07 pm 20:07 Cloudy with Light Snow 20 -6.7 15 -9.4 81 81 WNW 13 20 29.92 1013 3 5 0.00 0.00
8:09 pm 20:09 Cloudy with Light Snow 20 -6.7 15 -9.4 81 81 WNW 10 17 29.91 1013 3 4 0.00 0.00
8:13 pm 20:13 Cloudy with Light Snow 20 -6.7 15 -9.4 81 81 WNW 14 22 29.91 1013 2 2 0.00 0.00
8:21 pm 20:21 Cloudy with Light Snow 20 -6.7 15 -9.4 81 81 NW 16 26 29.91 1013 2 2 0.00 0.00
8:24 pm 20:24 Cloudy with Light Snow 19 -7.2 14 -10 81 81 NW 14 22 29.91 1013 2 3 0.00 0.00
8:27 pm 20:27 Cloudy with Light Snow 20 -6.7 14 -10 78 78 WNW 9 15 29.91 1013 3 5 0.00 0.00
8:53 pm 20:53 Cloudy 20 -6.7 10 -12.2 65 65 WNW 9 15 29.92 1013 10 16 0.00 0.00
9:53 pm 21:53 Cloudy 19 -7.2 7 -13.9 59 59 WNW 12 19 29.91 1013 9 14 0.00 0.00
10:53 pm 22:53 Cloudy 18 -7.8 8 -13.3 65 65 NW 10 17 29.93 1014 9 14 0.00 0.00
11:53 pm 23:53 Cloudy 17 -8.3 8 -13.3 68 68 WNW 10 17 29.92 1013 10 16 0.00 0.00

Powered by AerisWeather